This demonstration page uses our WeatherBlox Daily Observations layout. Learn more.

40.92945, -100.16068

Hourly Observations for March 11, 2018

Temp ( °F °C ) Dew Point ( °F °C ) Humidity (%) Winds ( mph kmh ) Pressure ( in mb ) Visibility ( mi km ) Precip ( " mm )
12:15 am 00:15 Cloudy 31 -0.4 25 -4 77 77 NNW 9 15 30.27 1025 10 16.0934 0 0
12:35 am 00:35 Cloudy 31 -0.5 25 -4 77 77 NNW 15 24 30.27 1025 10 16.0934 0 0
12:50 am 00:50 Cloudy 31 -0.5 24 -4.4 75 75 NNW 13 20 30.27 1025 10 16.0934 0 0
1:10 am 01:10 Cloudy 30 -0.9 22 -5.5 71 71 N 20 31 30.3 1026 10 16.0934 0 0
1:35 am 01:35 Mostly Cloudy 30 -1.3 22 -5.5 73 73 NNW 13 20 30.3 1026 10 16.0934 0 0
1:50 am 01:50 Cloudy 30 -1 22 -5.5 72 72 NNW 17 28 30.3 1026 10 16.0934 0 0
3:15 am 03:15 Cloudy 30 -1 22 -5.8 70 70 NNW 15 24 30.33 1027 10 16.0934 0 0
3:35 am 03:35 Cloudy 30 -1 22 -5.7 71 71 NNW 18 30 30.33 1027 10 16.0934 0 0
3:50 am 03:50 Cloudy 30 -1 22 -5.5 72 72 NNW 16 26 30.33 1027 10 16.0934 0 0
4:15 am 04:15 Cloudy 30 -1 22 -5.5 72 72 NNW 16 26 30.33 1027 10 16.0934 0 0
4:35 am 04:35 Cloudy 30 -1 22 -5.5 72 72 NNW 16 26 30.33 1027 10 16.0934 0 0
4:50 am 04:50 Cloudy 30 -1 22 -5.3 73 73 NNW 17 28 30.33 1027 10 16.0934 0 0
5:15 am 05:15 Cloudy 30 -1 23 -5.1 74 74 NNW 15 24 30.33 1027 10 16.0934 0 0
5:35 am 05:35 Cloudy 30 -1 23 -5.1 74 74 NNW 16 26 30.33 1027 10 16.0934 0 0
5:50 am 05:50 Cloudy 30 -1 23 -5 75 75 NNW 14 22 30.36 1028 10 16.0934 0 0
6:15 am 06:15 Cloudy 30 -1 23 -4.8 76 76 NNW 15 24 30.36 1028 10 16.0934 0 0
6:35 am 06:35 Cloudy 30 -1 23 -4.8 76 76 NNW 16 26 30.36 1028 10 16.0934 0 0
6:50 am 06:50 Cloudy 30 -1 23 -4.8 76 76 NNW 15 24 30.36 1028 10 16.0934 0 0
7:15 am 07:15 Cloudy 30 -1 23 -5 75 75 NNW 20 31 30.39 1029 10 16.0934 0 0
7:35 am 07:35 Cloudy 30 -1.1 23 -4.9 76 76 NNW 13 20 30.39 1029 10 16.0934 0 0
7:50 am 07:50 Cloudy 30 -1 23 -4.8 76 76 NNW 21 33 30.39 1029 10 16.0934 0 0
8:15 am 08:15 Cloudy 30 -1 24 -4.6 77 77 NNW 20 31 30.39 1029 10 16.0934 0 0
8:35 am 08:35 Cloudy 30 -1.1 24 -4.5 78 78 N 24 39 30.42 1030 10 16.0934 0 0
8:50 am 08:50 Cloudy 30 -1 24 -4.3 79 79 NNW 20 31 30.42 1030 10 16.0934 0 0
9:15 am 09:15 Cloudy 31 -0.8 24 -4.2 78 78 N 18 30 30.42 1030 10 16.0934 0 0
9:35 am 09:35 Cloudy 31 -0.8 25 -4 79 79 N 16 26 30.42 1030 10 16.0934 0 0
9:50 am 09:50 Cloudy 31 -0.6 25 -3.9 79 79 NNW 20 31 30.45 1031 10 16.0934 0 0
10:15 am 10:15 Cloudy 31 -0.3 25 -3.7 78 78 N 18 30 30.45 1031 10 16.0934 0 0
10:35 am 10:35 Cloudy 31 -0.4 25 -4 77 77 N 20 31 30.45 1031 10 16.0934 0 0
10:50 am 10:50 Cloudy 31 -0.3 25 -4 76 76 N 20 31 30.45 1031 10 16.0934 0 0
11:15 am 11:15 Cloudy 32 -0.1 25 -3.9 76 76 N 14 22 30.45 1031 10 16.0934 0 0
11:35 am 11:35 Cloudy 32 0.1 26 -3.6 76 76 N 15 24 30.45 1031 10 16.0934 0 0
11:50 am 11:50 Cloudy 33 0.3 26 -3.6 75 75 N 16 26 30.45 1031 10 16.0934 0 0
12:15 pm 12:15 Cloudy 33 0.7 26 -3.6 73 73 N 15 24 30.48 1032 10 16.0934 0 0
12:35 pm 12:35 Cloudy 34 1.2 26 -3.5 71 71 N 14 22 30.42 1030 10 16.0934 0 0
12:50 pm 12:50 Cloudy 35 1.8 26 -3.5 68 68 N 14 22 30.42 1030 10 16.0934 0 0
1:15 pm 13:15 Cloudy 36 2.2 26 -3.6 66 66 N 10 17 30.42 1030 10 16.0934 0 0
1:35 pm 13:35 Mostly Cloudy 38 3.2 26 -3.4 62 62 NNW 12 19 30.42 1030 10 16.0934 0 0
1:50 pm 13:50 Partly Cloudy 40 4.2 26 -3.5 58 58 N 9 15 30.39 1029 10 16.0934 0 0
2:10 pm 14:10 Partly Cloudy 41 4.8 26 -3.6 55 55 N 14 22 30.39 1029 10 16.0934 0 0
2:35 pm 14:35 Sunny 42 5.5 26 -3.6 52 52 N 14 22 30.39 1029 10 16.0934 0 0
2:55 pm 14:55 Sunny 43 5.9 25 -3.7 51 51 NNW 9 15 30.36 1028 10 16.0934 0 0
3:15 pm 15:15 Sunny 44 6.5 25 -3.9 48 48 NNW 13 20 30.33 1027 10 16.0934 0 0
3:35 pm 15:35 Sunny 45 7.3 25 -3.9 45 45 NNW 12 19 30.33 1027 10 16.0934 0 0
3:55 pm 15:55 Sunny 46 7.8 24 -4.3 42 42 NNW 7 11 30.33 1027 10 16.0934 0 0
4:15 pm 16:15 Sunny 47 8.3 24 -4.3 41 41 N 16 26 30.33 1027 10 16.0934 0 0
4:35 pm 16:35 Sunny 47 8.5 23 -4.9 39 39 N 14 22 30.33 1027 10 16.0934 0 0
4:55 pm 16:55 Sunny 47 8.6 22 -5.5 37 37 NNE 14 22 30.33 1027 10 16.0934 0 0
5:15 pm 17:15 Sunny 47 8.6 22 -5.3 37 37 N 16 26 30.33 1027 10 16.0934 0 0
5:35 pm 17:35 Sunny 46 7.9 22 -5.5 38 38 NNE 8 13 30.33 1027 10 16.0934 0 0
5:55 pm 17:55 Sunny 46 7.9 22 -5.8 38 38 NNE 15 24 30.33 1027 10 16.0934 0 0
6:15 pm 18:15 Sunny 45 7.4 21 -6 38 38 NNE 12 19 30.33 1027 10 16.0934 0 0
6:35 pm 18:35 Sunny 45 7 22 -5.7 40 40 N 9 15 30.36 1028 10 16.0934 0 0
6:55 pm 18:55 Sunny 44 6.5 22 -5.7 42 42 N 10 17 30.39 1029 10 16.0934 0 0
7:15 pm 19:15 Sunny 42 5.8 22 -5.4 45 45 NNE 8 13 30.39 1029 10 16.0934 0 0
7:35 pm 19:35 Sunny 40 4.5 22 -5.5 49 49 NNE 7 11 30.39 1029 10 16.0934 0 0
7:55 pm 19:55 Clear 38 3.1 21 -6.1 51 51 NNE 6 9 30.42 1030 10 16.0934 0 0
8:15 pm 20:15 Clear 37 2.7 21 -6.3 52 52 NNE 6 9 30.45 1031 10 16.0934 0 0
8:35 pm 20:35 Clear 35 1.5 21 -6.2 57 57 NE 5 7 30.45 1031 10 16.0934 0 0
8:55 pm 20:55 Clear 32 0.2 21 -6.1 63 63 NNE 3 6 30.48 1032 10 16.0934 0 0
9:15 pm 21:15 Clear 29 -1.6 20 -6.7 69 69 NE 3 6 30.48 1032 7 11.26538 0 0
9:35 pm 21:35 Clear 30 -1.2 21 -6.3 69 69 NNE 5 7 30.48 1032 10 16.0934 0 0
9:55 pm 21:55 Clear 28 -2.3 20 -6.7 72 72 NNE 7 11 30.5 1033 10 16.0934 0 0
10:15 pm 22:15 Clear 27 -2.7 19 -7.1 72 72 NNE 6 9 30.53 1034 10 16.0934 0 0
10:35 pm 22:35 Clear 26 -3.1 19 -7 75 75 NNE 6 9 30.53 1034 10 16.0934 0 0
10:55 pm 22:55 Clear 26 -3.1 19 -7 75 75 NE 8 13 30.53 1034 10 16.0934 0 0
11:15 pm 23:15 Clear 24 -4.3 18 -7.8 77 77 Calm 30.53 1034 10 16.0934 0 0
11:35 pm 23:35 Clear 28 -2.4 19 -7.2 70 70 Calm 30.53 1034 10 16.0934 0 0
11:55 pm 23:55 Clear 27 -3 19 -7.1 74 74 Calm 30.53 1034 10 16.0934 0 0

Powered by AerisWeather